This is the latest recevied weather packets stored in our database for station/object SV4JYD-14. If no packets are shown the sender has not sent any weather packets the latest 10 day(s).
| Time | Temp. | Humidity | Pressure | Rain* | Wind** | Luminosity | Snow |
|---|---|---|---|---|---|---|---|
| 1777538180 | 18.89° C | 50% | 1016 hPa | 0 mm | - | - | - |
| 1777537279 | 18.89° C | 52% | 1016 hPa | 0 mm | - | - | - |
| 1777536379 | 18.89° C | 54% | 1016 hPa | 0 mm | - | - | - |
| 1777535479 | 18.89° C | 54% | 1016 hPa | 0 mm | - | - | - |
| 1777534578 | 18.89° C | 53% | 1016 hPa | 0 mm | - | - | - |
| 1777533678 | 19.44° C | 51% | 1017 hPa | 0 mm | - | - | - |
| 1777532778 | 19.44° C | 54% | 1016 hPa | 0 mm | - | - | - |
| 1777531878 | 18.33° C | 55% | 1016 hPa | 0 mm | - | - | - |
| 1777530977 | 18.33° C | 56% | 1016 hPa | 0 mm | - | - | - |
| 1777530077 | 18.33° C | 55% | 1017 hPa | 0 mm | - | - | - |
| 1777529177 | 18.33° C | 56% | 1016 hPa | 0 mm | - | - | - |
| 1777528277 | 17.78° C | 58% | 1016 hPa | 0 mm | - | - | - |
| 1777527376 | 17.22° C | 63% | 1016 hPa | 0 mm | - | - | - |
| 1777526476 | 16.67° C | 68% | 1016 hPa | 0 mm | - | - | - |
| 1777525576 | 16.11° C | 71% | 1016 hPa | 0 mm | - | - | - |
| 1777524676 | 15° C | 73% | 1016 hPa | 0 mm | - | - | - |
| 1777523776 | 13.89° C | 74% | 1016 hPa | 0 mm | - | - | - |
| 1777522875 | 13.33° C | 76% | 1016 hPa | 0 mm | - | - | - |
| 1777521975 | 12.78° C | 75% | 1016 hPa | 0 mm | - | - | - |
| 1777521075 | 12.78° C | 75% | 1016 hPa | 0 mm | - | - | - |
| 1777520174 | 12.78° C | 75% | 1016 hPa | 0 mm | - | - | - |
| 1777519274 | 12.78° C | 74% | 1016 hPa | 0 mm | - | - | - |
| 1777518374 | 12.78° C | 74% | 1016 hPa | 0 mm | - | - | - |
| 1777517474 | 13.33° C | 74% | 1015 hPa | 0 mm | - | - | - |
| 1777516573 | 13.33° C | 74% | 1015 hPa | 0 mm | - | - | - |
* Rain latest hour (hover to see other rain measurements)
** Current wind speed in m/s (hover to see current wind gust speed)